Location: Newark
(12.4436°N, 0.6167°W)
Time: 19:29:28
(UTC+00:00)

Vanguard 1 - Pass Details

Date: 18 December 2019
Orbit: 651 x 3833 km, 34.2° (Epoch: 24 January)

Event Time Altitude Azimuth Distance (km) Brightness Sun altitude
Rises 03:13:31 0° 273° (W) 6,874 - -42.6°
Reaches altitude 10° 03:18:09 10° 280° (W) 6,199 - -41.6°
Exits shadow 03:35:06 42° 332° (NNW) 4,766 13.1 -37.7°
Maximum altitude 03:38:12 43° 347° (NNW) 4,738 13.1 -37.0°
Drops below altitude 10° 03:58:56 10° 54° (NE) 6,339 14.5 -32.2°
Sets 04:03:50 0° 62° (ENE) 7,028 15.0 -31.1°
